Aktjubinsk, Kazakhstan

8:30 AM +05 on January 21, 2018 (GMT +0500)
Aktobe

Weather History for UATT - October, 2012

Change the Weather History Date:

Sunday, October 7, 2012

  Actual Average Record
Temperature  
Mean Temperature 60 °F -  
Max Temperature 69 °F - - ()
Min Temperature 50 °F - - ()
Degree Days  
Heating Degree Days 6    
Growing Degree Days 10 (Base 50)    
Moisture  
Dew Point 28 °F    
Average Humidity 33    
Maximum Humidity 62    
Minimum Humidity 11    
Precipitation  
Precipitation 0.00 in - - ()
Sea Level Pressure  
Sea Level Pressure 30.11 in    
Wind  
Wind Speed 9 mph ()    
Max Wind Speed 18 mph    
Max Gust Speed -    
Visibility 7.2 miles    
Events Rain    
T = Trace of Precipitation, MM = Missing Value Source: Averaged Metar Reports

Daily Weather History Graph

Daily Weather History Graph

Search for Another Location

Airport or City:

Trip Planner

Search our weather history database for the weather conditions in past years. The results will help you decide how hot, cold, wet, or windy it might be!

Date:

Astronomy

Oct. 07, 2012 Rise Set
Actual Time 7:20 AM +05 6:36 PM +05
Civil Twilight 6:48 AM +05 7:08 PM +05
Nautical Twilight 6:10 AM +05 7:46 PM +05
Astronomical Twilight 5:32 AM +05 8:24 PM +05
Moon 10:58 PM +05 (10/7) 2:07 PM +05 (10/7)
Length of Visible Light 12h 20m
Length of Day
11h 15m
Waning Gibbous, 60% of the Moon is Illuminated
Oct 7
Waning Gibbous
Oct 8
Last Quarter
Oct 15
New
Oct 22
First Quarter
Oct 30
Full

Hourly Weather History & Observations

Time (+05) Temp. Dew Point Humidity Pressure Visibility Wind Dir Wind Speed Gust Speed Precip Events Conditions
12:00 AM 50.0 °F 35.6 °F 58% 30.18 in 6.2 mi East 4.5 mph - N/A Rain Light Rain Showers
12:30 AM 50.0 °F 33.8 °F 54% 30.15 in 6.2 mi ESE 6.7 mph - N/A Rain Light Rain Showers
1:00 AM 50.0 °F 30.2 °F 47% 30.15 in 6.2 mi SE 11.2 mph - N/A   Mostly Cloudy
1:30 AM 50.0 °F 30.2 °F 47% 30.15 in 6.2 mi SSE 8.9 mph - N/A   Scattered Clouds
2:00 AM 51 °F 30 °F 32% 30.17 in - South 4.5 mph - -   Overcast
2:00 AM 51.8 °F 28.4 °F 41% 30.15 in 6.2 mi South 11.2 mph - N/A   Scattered Clouds
2:30 AM 51.8 °F 28.4 °F 41% 30.15 in - South 11.2 mph - N/A   Clear
3:00 AM 51.8 °F 26.6 °F 38% 30.12 in - South 13.4 mph - N/A   Clear
3:30 AM 51.8 °F 26.6 °F 38% 30.12 in - South 13.4 mph - N/A   Clear
4:00 AM 51.8 °F 26.6 °F 38% 30.12 in - South 8.9 mph - N/A   Clear
4:30 AM 51.8 °F 26.6 °F 38% 30.12 in - South 13.4 mph - N/A   Clear
5:00 AM 52 °F 29 °F 29% 30.14 in - South 4.5 mph - -   Overcast
5:00 AM 51.8 °F 26.6 °F 38% 30.12 in - South 11.2 mph - N/A   Clear
5:30 AM 51.8 °F 26.6 °F 38% 30.12 in - South 11.2 mph - N/A   Clear
6:00 AM 51.8 °F 26.6 °F 38% 30.12 in - South 11.2 mph - N/A   Clear
6:30 AM 51.8 °F 24.8 °F 35% 30.09 in - South 11.2 mph - N/A   Clear
7:00 AM 51.8 °F 24.8 °F 35% 30.09 in - SSW 13.4 mph - N/A   Clear
7:30 AM 51.8 °F 24.8 °F 35% 30.09 in - SSW 17.9 mph - N/A   Clear
8:00 AM 53 °F 27 °F 25% 30.12 in 12 mi South 6.7 mph - -   Overcast
8:00 AM 53.6 °F 24.8 °F 33% 30.09 in - SSW 17.9 mph - N/A   Clear
8:30 AM 53.6 °F 24.8 °F 33% 30.09 in - SW 17.9 mph - N/A   Clear
9:00 AM 53.6 °F 24.8 °F 33% 30.09 in - SW 15.7 mph - N/A   Clear
9:30 AM 55.4 °F 24.8 °F 31% 30.12 in 6.2 mi SSW 15.7 mph - N/A   Mostly Cloudy
10:00 AM 57.2 °F 23.0 °F 27% 30.12 in 6.2 mi SSW 13.4 mph - N/A   Mostly Cloudy
10:30 AM 59.0 °F 23.0 °F 25% 30.12 in 6.2 mi SW 11.2 mph - N/A   Mostly Cloudy
11:00 AM 58 °F 26 °F 18% 30.13 in 12 mi WSW 6.7 mph - -   Mostly Cloudy
11:00 AM 59.0 °F 23.0 °F 25% 30.12 in 6.2 mi SW 8.9 mph - N/A   Mostly Cloudy
11:30 AM 60.8 °F 23.0 °F 23% 30.12 in 6.2 mi SW 11.2 mph - N/A   Mostly Cloudy
12:00 PM 60.8 °F 23.0 °F 23% 30.12 in 6.2 mi SW 11.2 mph - N/A   Mostly Cloudy
12:30 PM 62.6 °F 23.0 °F 22% 30.09 in 6.2 mi SW 11.2 mph - N/A   Mostly Cloudy
1:00 PM 66.2 °F 24.8 °F 21% 30.09 in 6.2 mi SW 13.4 mph - N/A   Mostly Cloudy
1:30 PM 66.2 °F 24.8 °F 21% 30.09 in 6.2 mi SW 11.2 mph - N/A   Mostly Cloudy
2:00 PM 67 °F 26 °F 11% 30.09 in 12 mi SW 6.7 mph - -   Mostly Cloudy
2:00 PM 68.0 °F 26.6 °F 21% 30.09 in 6.2 mi WSW 13.4 mph - N/A   Mostly Cloudy
2:30 PM 66.2 °F 26.6 °F 23% 30.09 in 6.2 mi SW 13.4 mph - N/A   Mostly Cloudy
3:00 PM 68.0 °F 24.8 °F 20% 30.09 in - SW 15.7 mph - N/A   Clear
3:30 PM 68.0 °F 26.6 °F 21% 30.09 in - SW 15.7 mph - N/A   Clear
4:00 PM 69.8 °F 26.6 °F 20% 30.09 in 6.2 mi SW 13.4 mph - N/A   Mostly Cloudy
4:30 PM 69.8 °F 28.4 °F 21% 30.09 in 6.2 mi SW 15.7 mph - N/A   Mostly Cloudy
5:00 PM 69 °F 30 °F 13% 30.08 in 12 mi SSW 4.5 mph - -   Mostly Cloudy
5:00 PM 69.8 °F 26.6 °F 20% 30.09 in - SSW 15.7 mph - N/A   Clear
5:30 PM 68.0 °F 28.4 °F 23% 30.09 in - SW 13.4 mph - N/A   Clear
6:00 PM 66.2 °F 28.4 °F 24% 30.09 in - SSW 13.4 mph - N/A   Clear
6:30 PM 64.4 °F 28.4 °F 26% 30.09 in - SSW 8.9 mph - N/A   Clear
7:00 PM 62.6 °F 30.2 °F 30% 30.09 in 6.2 mi SSW 8.9 mph - N/A   Scattered Clouds
7:30 PM 59.0 °F 30.2 °F 34% 30.09 in - SSW 8.9 mph - N/A   Clear
8:00 PM 61 °F 36 °F 27% 30.11 in - SSW 2.2 mph - -   Mostly Cloudy
8:00 PM 59.0 °F 32.0 °F 36% 30.09 in - SW 6.7 mph - N/A   Clear
8:30 PM 55.4 °F 32.0 °F 41% 30.09 in - SSW 6.7 mph - N/A   Clear
9:00 PM 53.6 °F 32.0 °F 44% 30.09 in - SSW 8.9 mph - N/A   Clear
9:30 PM 53.6 °F 33.8 °F 47% 30.09 in - SSW 6.7 mph - N/A   Clear
10:00 PM 53.6 °F 35.6 °F 51% 30.09 in - SW 8.9 mph - N/A   Clear
10:30 PM 51.8 °F 35.6 °F 54% 30.12 in - SW 8.9 mph - N/A   Clear
11:00 PM 55 °F 37 °F 38% 30.13 in - WSW 2.2 mph - -   Partly Cloudy
11:00 PM 51.8 °F 37.4 °F 58% 30.12 in - SW 8.9 mph - N/A   Clear
11:30 PM 50.0 °F 37.4 °F 62% 30.12 in - SW 8.9 mph - N/A   Clear